Location: Unspecified
(0.0000°N, 0.0000°E)
Time: 10:01:19
(UTC+00:00)

Vanguard 3 - Pass Details

Date: 25 September 2023
Orbit: 507 x 3241 km, 33.3° (Epoch: 06 December)

Event Time Altitude Azimuth Distance (km) Brightness Sun altitude
Rises 05:45:41 0° 269° (W) 3,442 - -1.5°
Exits shadow 05:46:05 - 268° (W) 3,330 9.6 -1.4°
Reaches altitude 10° 05:48:16 10° 255° (WSW) 2,790 9.3 -0.9°
Maximum altitude 05:53:55 26° 201° (SSW) 2,451 9.5 0.5°
Drops below altitude 10° 06:02:34 10° 150° (SSE) 4,413 11.4 2.7°
Sets 06:08:02 0° 139° (SE) 5,947 12.2 4.0°
